Location: Newark
(34.0131°N, 4.3314°W)
Time: 23:00:47
(UTC+00:00)

Altair - All Passes

Search period start: 14 October 2019 00:00
Search period end: 24 October 2019 00:00
Orbit: 1501 x 1683 km, 47.2° (Epoch: 14 October)

Date Brightness Start Highest point End Pass type
(mag) Time Alt. Az. Time Alt. Az. Time Alt. Az.
14 Oct - 10:47:02 10° SSW 10:55:25 37° SE 11:04:05 10° ENE daylight
14 Oct - 12:50:05 10° WSW 12:59:41 74° NNW 13:09:41 10° NE daylight
14 Oct - 14:56:49 10° WNW 15:05:54 40° N 15:15:16 10° ENE daylight
14 Oct - 17:03:30 10° NW 17:12:59 44° NNE 17:22:35 10° E daylight
14 Oct - 19:08:39 10° NW 19:18:51 90° WSW 19:29:01 10° SE visible
14 Oct - 21:14:48 10° WNW 21:22:52 28° SW 21:30:53 10° S visible
15 Oct - 10:22:15 10° S 10:30:20 34° SE 10:38:41 10° ENE daylight
15 Oct - 12:24:53 10° WSW 12:34:27 78° NW 12:44:27 10° NE daylight
15 Oct - 14:31:28 10° W 14:40:33 41° NNW 14:49:56 10° ENE daylight
15 Oct - 16:38:14 10° NW 16:47:38 43° NNE 16:57:09 10° E daylight
15 Oct - 18:43:26 10° NW 18:53:37 85° NE 19:03:48 10° SE visible
15 Oct - 20:49:20 10° WNW 20:57:46 31° SW 21:06:08 10° S visible
16 Oct - 09:57:30 10° S 10:05:16 30° SE 10:13:16 10° ENE daylight
16 Oct - 11:59:42 10° SW 12:09:15 83° NW 12:19:13 10° NE daylight
16 Oct - 14:06:06 10° W 14:15:12 42° NNW 14:24:37 10° NE daylight
16 Oct - 16:12:58 10° WNW 16:22:16 42° NNE 16:31:45 10° E daylight
16 Oct - 18:18:13 10° NW 18:28:23 80° NE 18:38:34 10° ESE visible
16 Oct - 20:23:55 10° WNW 20:32:39 34° SW 20:41:22 10° S visible
17 Oct - 09:32:48 10° S 09:40:12 27° SE 09:47:48 10° ENE daylight
17 Oct - 11:34:33 10° SW 11:44:03 89° NW 11:53:59 10° NE daylight
17 Oct - 13:40:45 10° W 13:49:51 43° NNW 13:59:18 10° NE daylight
17 Oct - 15:47:41 10° WNW 15:56:55 40° N 16:06:19 10° ENE daylight
17 Oct - 17:53:01 10° NW 18:03:09 75° NE 18:13:19 10° ESE visible
17 Oct - 19:58:32 10° WNW 20:07:32 38° SW 20:16:32 10° SSE visible
18 Oct - 09:08:11 10° S 09:15:09 24° SE 09:22:16 10° ENE daylight
18 Oct - 11:09:25 10° SW 11:18:52 86° SE 11:28:45 10° NE daylight
18 Oct - 13:15:24 10° W 13:24:31 45° NNW 13:34:00 10° NE daylight
18 Oct - 15:22:25 10° WNW 15:31:33 40° N 15:40:53 10° ENE daylight
18 Oct - 17:27:49 10° NW 17:37:54 71° NNE 17:48:03 10° ESE daylight
18 Oct - 19:33:11 10° WNW 19:42:25 42° SW 19:51:39 10° SSE visible
19 Oct - 08:43:39 10° S 08:50:06 21° SE 08:56:41 10° E daylight
19 Oct - 10:44:18 10° SW 10:53:42 80° SE 11:03:32 10° NE daylight
19 Oct - 12:50:04 10° W 12:59:12 46° NNW 13:08:42 10° NE daylight
19 Oct - 14:57:08 10° WNW 15:06:11 39° N 15:15:28 10° ENE daylight
19 Oct - 17:02:37 10° NW 17:12:37 67° NNE 17:22:45 10° ESE daylight
19 Oct - 19:07:52 10° WNW 19:17:17 46° SW 19:26:42 10° SSE visible
20 Oct - 08:19:12 10° SSE 08:25:04 19° ESE 08:31:01 10° E daylight
20 Oct - 10:19:13 10° SW 10:28:33 74° SE 10:38:17 10° ENE daylight
20 Oct - 12:24:44 10° W 12:33:54 48° NNW 12:43:26 10° NE daylight
20 Oct - 14:31:50 10° WNW 14:40:48 38° N 14:50:03 10° ENE daylight
20 Oct - 16:37:25 10° NW 16:47:21 63° NNE 16:57:26 10° ESE daylight
20 Oct - 18:42:34 10° WNW 18:52:08 50° SW 19:01:45 10° SSE visible
21 Oct - 07:54:53 10° SSE 08:00:01 16° ESE 08:05:14 10° E daylight
21 Oct - 09:54:10 10° SW 10:03:24 69° SE 10:13:02 10° ENE daylight
21 Oct - 11:59:25 10° W 12:08:36 50° NNW 12:18:10 10° NE daylight
21 Oct - 14:06:31 10° WNW 14:15:26 38° N 14:24:37 10° ENE daylight
21 Oct - 16:12:13 10° NW 16:22:04 60° NNE 16:32:05 10° ESE daylight
21 Oct - 18:17:17 10° WNW 18:26:59 54° SW 18:36:45 10° SSE visible
21 Oct - 20:27:44 10° WSW 20:30:20 11° WSW 20:32:56 10° SW visible
22 Oct - 07:30:48 10° SSE 07:34:59 14° ESE 07:39:14 10° E daylight
22 Oct - 09:29:08 10° SW 09:38:16 63° SE 09:47:47 10° ENE daylight
22 Oct - 11:34:06 10° W 11:43:18 53° NNW 11:52:55 10° NE daylight
22 Oct - 13:41:12 10° WNW 13:50:04 38° N 13:59:13 10° ENE daylight
22 Oct - 15:47:01 10° NW 15:56:47 57° NNE 16:06:44 10° ESE daylight
22 Oct - 17:52:02 10° WNW 18:01:50 59° SW 18:11:43 10° SSE visible
22 Oct - 20:01:05 10° W 20:05:16 13° WSW 20:09:29 10° SSW visible
23 Oct - 07:07:08 10° SE 07:09:58 12° ESE 07:12:49 10° ESE daylight
23 Oct - 09:04:08 10° SSW 09:13:09 58° SE 09:22:31 10° ENE daylight
23 Oct - 11:08:48 10° WSW 11:18:02 55° NNW 11:27:40 10° NE daylight
23 Oct - 13:15:53 10° WNW 13:24:42 37° N 13:33:49 10° ENE daylight
23 Oct - 15:21:49 10° NW 15:31:29 54° NNE 15:41:22 10° E daylight
23 Oct - 17:26:47 10° WNW 17:36:40 64° SW 17:46:39 10° SE daylight
23 Oct - 19:34:58 10° W 19:40:12 15° WSW 19:45:28 10° SSW visible
